Regional Weather Roundup
Issued by NWS

Home | Current Version | Previous Version | Graphics & Text | Print | Product List | Glossary On
Versions: 1 2 3 4 5 6 7 8 9 10 11 12 13 14 15 16 17 18 19 20 21 22 23 24 25 26 27 28 29 30 31 32 33 34 35 36 37 38 39 40 41 42 43 44 45 46 47 48 49 50
000
ASUS43 KLMK 300910
RWRKY
KENTUCKY REGIONAL WEATHER ROUNDUP
NATIONAL WEATHER SERVICE LOUISVILLE KY
500 AM EDT SAT AUG 30 2014

NOTE "FAIR" INDICATES FEW OR NO CLOUDS BELOW 12,000 FEET
WITH NO SIGNIFICANT WEATHER AND/OR OBSTRUCTIONS TO VISIBILITY.

KYZ001>023-026-027-061>063-070>075-301000-
WESTERN AND SOUTH CENTRAL KENTUCKY

CITY           SKY/WX    TMP DP  RH WIND       PRES   REMARKS
PADUCAH        CLOUDY    75  69  81 CALM      29.99R
HENDERSON      MOCLDY    72  64  78 S3        29.99S
OWENSBORO      NOT AVBL
HOPKINSVILLE   MOCLDY    75  65  70 S2        30.02R
BOWLING GREEN  MOCLDY    70  66  87 NE3       30.04R
GLASGOW        PTCLDY    70  63  77 CALM      30.05S
$$

KYZ024-025-028>034-038-045-046-053-301000-
NORTH CENTRAL KENTUCKY

CITY           SKY/WX    TMP DP  RH WIND       PRES   REMARKS
LOUISVILLE/SDF PTCLDY    72  65  78 SE8       30.03R
LOUISVILLE/LOU CLEAR     71  64  78 CALM      30.04R
FORT KNOX      CLEAR     69  65  87 S3        30.03R
$$

KYZ035>037-039>044-047>052-055>060-089>105-301000-
NORTHEAST KENTUCKY

CITY           SKY/WX    TMP DP  RH WIND       PRES   REMARKS
LEXINGTON      MOCLDY    73  68  84 SE5       30.07S
COVINGTON      CLEAR     70  66  87 S7        30.05R
FRANKFORT      CLEAR     70  65  84 CALM      30.05R
$$

KYZ054-064>069-076>088-106>120-301000-
SOUTHEAST KENTUCKY

CITY           SKY/WX    TMP DP  RH WIND       PRES   REMARKS
JACKSON        CLEAR     73  68  84 VRB3      30.13S
LONDON         CLEAR     70  66  87 CALM      30.12S
SOMERSET       CLEAR     70  66  88 S6        30.11R
MIDDLESBORO    CLEAR     65  65  97 CALM      30.15R
MONTICELLO     SUNNY     70  66  86 S6        30.11R
$$




USA.gov is the U.S. government's official web portal to all federal, state and local government web resources and services.